Location: Brad
(46.1333°N, 22.7833°E)
Time: 04:40:27
(UTC+00:00)

Cosmos 1726 Rocket - Pass Details

Date: 03 February 2023
Orbit: 602 x 627 km, 82.5° (Epoch: 29 March)

Event Time Altitude Azimuth Distance (km) Brightness Sun altitude
Rises 17:24:04 0° 346° (NNW) 2,866 7.1 -18.9°
Reaches altitude 10° 17:26:20 10° 341° (NNW) 1,958 6.3 -19.3°
Maximum altitude 17:30:31 51° 266° (W) 766 4.4 -20.0°
Drops below altitude 10° 17:34:41 10° 191° (S) 1,946 6.3 -20.7°
Sets 17:36:55 0° 186° (S) 2,846 7.1 -21.1°
